Stations météo

réclame
Mon MeteoGroup
Vlieland, Pays-Bas (6242): Température de l'air & dewpoint: 05.12.2019 02:00:00 - 11.12.2019 02:00:00 (CET)Vlieland, Pays-Bas (6242): Température de l'air 5cm: 05.12.2019 02:00:00 - 11.12.2019 02:00:00 (CET)Vlieland, Pays-Bas (6242): Vitesse du vent & gusts: 05.12.2019 02:00:00 - 11.12.2019 02:00:00 (CET)Vlieland, Pays-Bas (6242): Direction du vent: 05.12.2019 02:00:00 - 11.12.2019 02:00:00 (CET)Vlieland, Pays-Bas (6242): reduced air pressure: 05.12.2019 02:00:00 - 11.12.2019 02:00:00 (CET)Vlieland, Pays-Bas (6242): visibility: 05.12.2019 02:00:00 - 11.12.2019 02:00:00 (CET)
Date & Time tt [°C] td [°C] tt 5cm [°C] ff [km/h] ff [knt] fx [km/h] fx [knt] dd ppp [hPa] vv [km]
11.12.2019 02:00:00 8,1 7,2 7,9 41 22 72 39 WSW 1004,9 5
11.12.2019 01:00:00 7,9 6,1 7,8 57 31 83 45 SSW 1003,9 8
11.12.2019 00:00:00 8,2 5,5 8,0 59 32 83 45 SSW 1003,8 10
10.12.2019 23:00:00 7,6 4,7 7,5 59 32 76 41 SSW 1004,4 10
10.12.2019 22:00:00 7,4 4,2 7,3 63 34 79 43 SSW 1005,2 10
10.12.2019 21:00:00 6,8 3,7 6,6 52 28 68 37 S 1006,6 10
10.12.2019 20:00:00 6,4 3,2 6,3 48 26 68 37 S 1007,5 10
10.12.2019 19:00:00 6,2 3,1 6,0 55 30 72 39 S 1008,4 10
10.12.2019 18:00:00 5,9 3,5 5,7 50 27 61 33 S 1009,7 10
10.12.2019 17:00:00 6,3 2,7 6,2 50 27 68 37 S 1011,1 10
10.12.2019 16:00:00 6,2 2,7 6,0 48 26 61 33 S 1012,6 10
10.12.2019 15:00:00 6,2 2,8 6,1 46 25 58 31 S 1014,5 10
10.12.2019 14:00:00 6,5 2,7 6,5 41 22 58 31 S 1015,9 10
10.12.2019 13:00:00 6,6 2,8 6,6 42 23 58 31 SSW 1017,5 10
10.12.2019 12:00:00 7,1 3,2 7,3 37 20 47 25 SSW 1018,7 10
10.12.2019 11:00:00 6,2 3,0 6,2 28 15 36 19 S 1019,9 10
10.12.2019 10:00:00 6,2 2,3 5,6 24 13 32 18 SSW 1020,7 10
10.12.2019 09:00:00 4,9 2,3 4,2 21 11 29 16 SSW 1021,3 -
10.12.2019 08:00:00 5,5 2,0 4,5 18 10 25 14 S 1021,1 -
10.12.2019 07:00:00 5,5 1,7 4,4 16 9 25 14 SW 1021,8 -
10.12.2019 06:00:00 6,5 2,0 5,9 22 12 32 18 WSW 1021,6 -
10.12.2019 05:00:00 7,6 0,1 7,0 21 11 29 16 W 1021,6 -
10.12.2019 04:00:00 7,4 0,3 7,1 22 12 36 19 WNW 1021,5 -
10.12.2019 03:00:00 7,6 -0,3 7,2 31 17 43 23 NW 1021,1 -
10.12.2019 02:00:00 7,4 -1,2 6,8 34 18 54 29 NW 1020,6 -
10.12.2019 01:00:00 7,4 -0,2 7,1 44 24 58 31 NNW 1019,6 -
10.12.2019 00:00:00 7,4 -1,2 6,9 44 24 58 31 NNW 1018,9 -
09.12.2019 23:00:00 7,3 -1,9 6,9 50 27 65 35 NNW 1017,9 -
09.12.2019 22:00:00 7,2 1,0 6,8 52 28 68 37 NNW 1016,8 9
09.12.2019 21:00:00 7,0 1,8 5,1 52 28 79 43 N 1015,6 10
09.12.2019 20:00:00 7,5 -0,1 7,1 55 30 72 39 NNW 1013,9 10
09.12.2019 19:00:00 7,3 2,1 6,9 50 27 72 39 NNW 1012,4 9
09.12.2019 18:00:00 6,5 2,3 6,5 55 30 83 45 NNW 1010,6 8
09.12.2019 17:00:00 7,9 1,5 7,4 55 30 76 41 NNW 1008,4 9
09.12.2019 16:00:00 8,3 0,4 7,8 57 31 76 41 NNW 1005,9 10
09.12.2019 15:00:00 8,5 2,6 8,2 57 31 72 39 NNW 1003,4 10
09.12.2019 14:00:00 7,9 4,1 7,0 46 25 68 37 N 1000,9 8
09.12.2019 13:00:00 8,5 4,8 8,6 41 22 68 37 NNW 998,3 10
09.12.2019 12:00:00 8,8 5,4 8,7 31 17 40 21 NW 996,2 10
09.12.2019 11:00:00 8,9 5,8 8,5 29 16 40 21 WNW 994,7 10
09.12.2019 10:00:00 7,6 5,3 7,4 29 16 40 21 W 993,4 8
09.12.2019 09:00:00 7,9 5,4 7,4 28 15 36 19 WNW 992,3 10
09.12.2019 08:00:00 7,2 5,2 7,0 34 18 47 25 W 991,3 10
09.12.2019 07:00:00 7,2 5,2 6,9 24 13 40 21 SW 990,5 10
09.12.2019 06:00:00 8,0 4,7 7,3 29 16 43 23 WSW 989,9 10
09.12.2019 05:00:00 8,1 4,7 7,5 39 21 58 31 WSW 989,8 9
09.12.2019 04:00:00 7,9 4,5 7,6 46 25 61 33 WSW 990,0 10
09.12.2019 03:00:00 8,0 4,0 7,6 48 26 61 33 WSW 990,7 10
09.12.2019 02:00:00 8,0 4,0 7,5 48 26 65 35 WSW 990,9 10
09.12.2019 01:00:00 8,1 3,8 7,7 55 30 68 37 WSW 990,9 10
09.12.2019 00:00:00 8,2 3,6 7,5 54 29 65 35 WSW 991,3 10
08.12.2019 23:00:00 8,3 3,4 8,0 54 29 68 37 WSW 991,4 10
08.12.2019 22:00:00 8,5 3,5 8,1 52 28 68 37 WSW 991,5 10
08.12.2019 21:00:00 8,7 4,4 8,2 55 30 68 37 WSW 991,7 10
08.12.2019 20:00:00 9,3 3,9 8,9 54 29 68 37 WSW 992,1 10
08.12.2019 19:00:00 8,3 3,8 7,8 57 31 79 43 WSW 992,7 10
08.12.2019 18:00:00 9,7 4,2 9,1 52 28 68 37 WSW 992,8 10
08.12.2019 17:00:00 9,5 5,0 9,1 54 29 72 39 WSW 993,3 9
08.12.2019 16:00:00 9,6 4,5 9,3 59 32 72 39 WSW 994,0 10
08.12.2019 15:00:00 9,7 5,0 9,6 55 30 68 37 WSW 994,2 10
08.12.2019 14:00:00 10,0 5,8 10,1 54 29 76 41 W 994,5 10
08.12.2019 13:00:00 10,2 6,3 10,3 57 31 76 41 W 994,3 10
08.12.2019 12:00:00 10,3 7,2 10,3 54 29 68 37 W 994,3 10
08.12.2019 11:00:00 10,0 8,6 9,5 50 27 76 41 W 994,1 8
08.12.2019 10:00:00 10,4 9,8 10,0 54 29 76 41 SW 993,4 6
08.12.2019 09:00:00 9,5 9,1 9,3 67 36 86 47 SW 993,7 2,6
08.12.2019 08:00:00 9,1 8,5 9,1 67 36 83 45 SSW 993,6 3,2
08.12.2019 07:00:00 9,1 8,2 8,8 63 34 86 47 SW 994,9 7
08.12.2019 06:00:00 8,8 7,8 8,7 68 37 86 47 SSW 995,8 6
08.12.2019 05:00:00 9,5 7,5 9,4 65 35 86 47 SSW 996,9 10
08.12.2019 04:00:00 9,6 7,7 9,5 65 35 79 43 SSW 998,6 10
08.12.2019 03:00:00 9,6 7,9 9,5 55 30 72 39 SSW 1000,5 10
08.12.2019 02:00:00 9,8 7,8 9,7 57 31 72 39 SW 1002,0 10
08.12.2019 01:00:00 9,6 7,0 9,4 59 32 72 39 SW 1003,4 10
08.12.2019 00:00:00 9,5 6,9 9,2 46 25 61 33 SW 1004,7 10
07.12.2019 23:00:00 9,3 6,6 9,0 46 25 58 31 SW 1006,3 10
07.12.2019 22:00:00 9,4 6,5 9,1 39 21 50 27 SW 1007,3 10
07.12.2019 21:00:00 9,5 5,3 8,9 41 22 50 27 WSW 1008,6 10
07.12.2019 20:00:00 9,3 6,7 9,1 37 20 43 23 WSW 1009,4 10
07.12.2019 19:00:00 9,3 7,3 9,2 31 17 40 21 WSW 1009,8 8
07.12.2019 18:00:00 9,4 7,5 9,3 28 15 40 21 WSW 1010,4 9
07.12.2019 17:00:00 9,4 7,2 9,2 31 17 40 21 W 1010,4 9
07.12.2019 16:00:00 9,3 7,3 9,2 31 17 43 23 W 1009,9 10
07.12.2019 15:00:00 9,5 7,4 9,6 34 18 47 25 W 1009,7 10
07.12.2019 14:00:00 9,7 7,5 9,9 37 20 47 25 W 1009,5 10
07.12.2019 13:00:00 9,8 7,5 10,1 37 20 43 23 W 1009,6 10
07.12.2019 12:00:00 9,7 7,6 9,9 35 19 43 23 W 1009,5 9
07.12.2019 11:00:00 9,7 7,6 9,8 35 19 43 23 W 1009,3 9
07.12.2019 10:00:00 9,5 7,6 9,4 34 18 47 25 W 1008,9 10
07.12.2019 09:00:00 9,4 7,5 9,3 37 20 50 27 W 1008,4 9
07.12.2019 08:00:00 9,5 7,5 9,2 39 21 50 27 W 1007,4 10
07.12.2019 07:00:00 9,5 7,5 9,3 41 22 50 27 W 1006,4 10
07.12.2019 06:00:00 9,4 7,6 9,3 42 23 54 29 W 1005,5 9
07.12.2019 05:00:00 9,5 7,7 9,4 42 23 54 29 W 1004,8 9
07.12.2019 04:00:00 9,4 7,6 9,2 46 25 58 31 W 1003,9 10
07.12.2019 03:00:00 9,5 7,6 9,4 46 25 58 31 W 1003,1 10
07.12.2019 02:00:00 9,5 8,0 9,4 39 21 54 29 W 1002,0 9
07.12.2019 01:00:00 9,6 8,1 9,3 41 22 54 29 WNW 1001,0 10
07.12.2019 00:00:00 9,5 8,3 9,4 46 25 54 29 WNW 1000,1 10
06.12.2019 23:00:00 9,6 8,7 9,4 37 20 54 29 W 999,0 10
06.12.2019 22:00:00 8,9 8,5 8,9 37 20 47 25 W 998,3 4,1
06.12.2019 21:00:00 9,6 8,9 9,5 34 18 47 25 W 997,6 10
06.12.2019 20:00:00 10,2 9,8 10,1 42 23 54 29 WSW 997,4 4,1
06.12.2019 19:00:00 10,2 9,8 10,1 42 23 58 31 SW 997,3 8
06.12.2019 18:00:00 10,3 10,0 10,2 42 23 61 33 SW 997,5 6
06.12.2019 17:00:00 10,3 10,1 10,1 48 26 58 31 SW 998,1 3,6
06.12.2019 16:00:00 10,2 10,0 10,2 50 27 61 33 SW 998,3 5
06.12.2019 15:00:00 9,9 9,6 9,9 54 29 68 37 SW 999,0 3,0
06.12.2019 14:00:00 9,6 9,1 9,5 55 30 76 41 SSW 999,6 4,7
06.12.2019 13:00:00 9,1 8,7 9,1 57 31 79 43 SSW 1000,6 3,2
06.12.2019 12:00:00 9,4 9,1 9,2 57 31 79 43 SW 1001,4 6
06.12.2019 11:00:00 9,2 9,0 9,1 48 26 61 33 SSW 1002,7 2,2
06.12.2019 10:00:00 8,7 8,6 8,7 44 24 58 31 SSW 1003,4 4,2
06.12.2019 09:00:00 9,1 8,9 9,1 39 21 54 29 SSW 1004,0 4,2
06.12.2019 08:00:00 9,9 9,3 9,8 42 23 58 31 SW 1004,4 4,4
06.12.2019 07:00:00 9,9 9,2 9,7 46 25 54 29 SW 1005,0 4,5
06.12.2019 06:00:00 9,7 9,1 9,6 42 23 61 33 SW 1005,0 3,7
06.12.2019 05:00:00 9,5 9,1 9,5 54 29 68 37 SW 1005,2 2,8
06.12.2019 04:00:00 9,7 8,8 9,6 57 31 68 37 SW 1005,5 3,9
06.12.2019 03:00:00 10,1 8,3 9,9 57 31 72 39 SW 1005,9 9
06.12.2019 02:00:00 9,9 8,3 9,3 57 31 72 39 SW 1006,5 8
06.12.2019 01:00:00 9,1 8,0 9,1 59 32 76 41 SW 1007,0 6
06.12.2019 00:00:00 9,1 7,8 9,0 61 33 76 41 SW 1007,5 6
05.12.2019 23:00:00 9,0 7,7 8,8 61 33 76 41 SW 1008,1 6
05.12.2019 22:00:00 8,5 7,2 8,3 61 33 72 39 SW 1009,3 6
05.12.2019 21:00:00 8,2 6,8 8,0 59 32 72 39 SSW 1010,0 9
05.12.2019 20:00:00 8,3 6,6 8,2 46 25 61 33 SSW 1011,1 10
05.12.2019 19:00:00 8,7 5,0 8,2 50 27 61 33 SW 1011,9 10
05.12.2019 18:00:00 8,6 6,5 8,2 46 25 54 29 SW 1013,1 10
05.12.2019 17:00:00 8,6 6,5 8,3 41 22 50 27 SW 1013,7 10
05.12.2019 16:00:00 8,3 6,1 8,0 37 20 47 25 SW 1014,8 10
05.12.2019 15:00:00 8,8 6,6 8,6 41 22 47 25 WSW 1015,3 10
05.12.2019 14:00:00 9,0 6,7 9,0 37 20 47 25 WSW 1016,1 10
05.12.2019 13:00:00 9,0 7,1 8,9 31 17 43 23 WSW 1016,9 10
05.12.2019 12:00:00 8,5 6,8 8,5 31 17 40 21 SW 1017,4 10
05.12.2019 11:00:00 8,1 6,4 8,1 29 16 40 21 SW 1017,8 10
05.12.2019 10:00:00 7,4 5,4 7,0 26 14 29 16 SW 1017,9 10
05.12.2019 09:00:00 6,7 4,6 6,0 26 14 32 18 WSW 1017,9 10
05.12.2019 08:00:00 6,9 4,5 6,1 28 15 32 18 WSW 1017,9 10
05.12.2019 07:00:00 7,3 4,8 6,6 29 16 36 19 W 1018,1 10
05.12.2019 06:00:00 7,2 5,2 5,5 22 12 29 16 W 1018,5 10
05.12.2019 05:00:00 7,0 4,7 5,3 21 11 25 14 WSW 1018,0 10
05.12.2019 04:00:00 6,9 5,2 6,1 18 10 25 14 WSW 1018,3 10
05.12.2019 03:00:00 4,3 4,0 3,7 15 8 18 10 SSW 1018,5 4,6
05.12.2019 02:00:00 4,8 4,4 4,3 16 9 25 14 SSW 1019,0 5

tt = Température de l'air
td = dewpoint
tt 5cm = Température de l'air 5cm
ff = Vitesse du vent
fx = gusts
dd = Direction du vent
ppp = reduced air pressure
vv = visibility

stations d'obs. à proximité